{"data":{"norad_id":65149,"intl_designator":"2025-171T","name":"KUIPER-00111","alt_names":[],"object_type":"PAYLOAD","status":"ACTIVE","operator":null,"country":"US","launch_date":"2025-08-11","launch_site_code":"AFETR","launch_vehicle":null,"mission":null,"orbit_class":"UNKNOWN","rcs_meters":null,"size_class":null,"mass_kg":null,"dimensions":null,"purposes":[],"wikipedia_slug":null,"has_3d_model":false,"image_url":null,"decayed_at":null,"tle_current":{"epoch":"2026-09-21T11:56:45.635424Z","epoch_age_seconds":79142,"freshness":"FRESH","line1":"1 65149U 25171T   26264.49775041  .00002373  00000+0  34020-3 0  9994","line2":"2 65149  51.8975  27.1288 0000444 121.9180 238.1826 14.79935895 61674","mean_motion":14.79935895,"eccentricity":4.44e-5,"inclination_deg":51.8975,"raan_deg":27.1288,"arg_perigee_deg":121.918,"mean_anomaly_deg":238.1826,"bstar":0.0003402,"rev_number":6167,"period_min":97.301511833389,"perigee_km":629.2153501333,"apogee_km":629.83763065125,"semimajor_km":7007.6634903923,"source":"CELESTRAK","updated_at":"2026-09-22T09:00:30.156423Z"}}}